カタログに戻る

COSMOS 1198

運用中ナビゲーションLEO
NORAD 11881·PAYLOAD·🇷🇺 Russia

打ち上げ Jul 9, 1980 から Plesetsk Cosmodrome

Loading…

次のパス (今後24時間)

TLE

最新Source: Space-Track

元期: Sep 14, 2026, 06:53 UTC

1 11881U 80058G   26257.28747869 -.00000016  00000-0 -14791-5 0  9999
2 11881  74.0148  97.4713 0021752  65.8181  45.9917 12.43795047 96914

AllMySatでCOSMOS 1198をリアルタイム追跡

Download on the App Store